[[{"header":{"parameterUnit":"m.s-1","parameterCategory":1,"la1":30.2991,"la2":30.254,"lo1":-89.0895,"lo2":-89.0444,"dy":0.0017,"dx":0.0017,"nx":28,"ny":28,"refTime":"2024-10-01T03:00:00:Z","depth":0,"parameterNumber":2,"parameterNumberName":"U-component_of_WINDS"},"data":[0,0,0,0,0,0,0,0,0,0,0,0,0,0,0,0,0,0,0,0,0,0,0,0,0,0,0,0,0,0,0,0,0,0,0,0,0,0,0,0,0,0,0,0,0,0,0,0,0,0,0,0,0,0,0,0,0,0,1.1599,1.16,0,1.1652,1.1652,1.1653,1.1625,1.1623,1.1622,1.162,1.1677,1.168,1.1683,0,0,0,0,0,0,0,0,0,0,0,0,0,1.1478,1.148,1.1599,1.16,1.1601,1.1652,1.1652,1.1653,1.1625,1.1623,1.1621,1.162,1.1676,1.168,1.1683,0,0,0,0,0,0,0,0,0,0,0,0,0,1.1531,1.1481,1.1599,1.1593,1.1593,1.1652,1.1652,1.1653,1.1625,1.1623,1.1621,1.1619,1.1675,1.1679,1.1683,1.1753,0,0,1.1696,1.1698,0,0,0,0,0,0,0,0,1.1528,1.1535,1.1593,1.1593,1.1593,1.1629,1.163,1.1687,1.1626,1.1613,1.162,1.1618,1.1663,1.1668,1.1683,1.1755,1.1758,1.1697,1.1699,1.1701,1.1702,0,0,0,0,0,0,0,1.1524,1.1533,1.162,1.1594,1.1594,1.1588,1.1593,1.1641,1.165,1.1614,1.1612,1.1618,1.1663,1.1679,1.1684,1.1759,1.1697,1.17,1.1703,1.1705,1.1892,1.1894,0,0,0,0,0,0,1.152,1.153,1.1619,1.1622,1.1554,1.1592,1.1598,1.162,1.1649,1.1651,1.162,1.1617,1.1673,1.1679,1.1686,1.177,1.1701,1.1705,1.1708,1.1889,1.1892,1.1895,0,0,0,0,0,0,1.1518,1.1529,1.1616,1.1575,1.1586,1.1596,1.1622,1.1622,1.1638,1.1654,1.1655,1.1635,1.1671,1.168,1.1736,1.1771,1.1707,1.1711,1.1887,1.189,1.1894,1.1937,0,0,0,0,0,0,1.1515,1.1528,1.1553,1.1576,1.1588,1.1665,1.1624,1.1625,1.1645,1.1641,1.1668,1.167,1.167,1.173,1.1741,1.1776,1.1714,1.1884,1.1888,1.1893,1.1933,1.1942,1.195,0,0,0,0,0,1.151,1.1564,1.1555,1.1566,1.162,1.1667,1.1674,1.1672,1.1648,1.1675,1.1685,1.1669,1.1766,1.1736,1.1748,1.1785,1.1881,1.1887,1.1892,1.1929,1.194,1.195,0,0,0,0,0,0,1.1546,1.1567,1.1557,1.1619,1.1642,1.1662,1.1695,1.1684,1.1714,1.171,1.1707,1.1713,1.1772,1.1784,1.1751,1.1854,1.182,1.1828,1.1844,1.1855,1.1863,1.1859,1.1718,0,0,0,0,0,1.1561,1.1596,1.1613,1.1667,1.1678,1.1685,1.1705,1.1702,1.1725,1.1735,1.1749,1.1773,1.1809,1.1832,1.1866,1.1934,1.194,1.1966,1.1974,1.1981,1.1988,1.2027,1.2038,1.1913,1.1913,1.1913,0,0,1.1593,1.1609,1.1631,1.1674,1.1691,1.1729,1.1693,1.1734,1.1762,1.1741,1.1795,1.1807,1.1834,1.1896,1.1925,1.1908,1.2024,1.1988,1.1994,1.1997,1.2033,1.2045,1.2056,1.1917,1.1916,1.1915,0,0,1.167,1.1685,1.1731,1.1749,1.1775,1.1779,1.179,1.1813,1.1819,1.1873,1.1858,1.1893,1.1954,1.1974,1.1992,1.2078,1.2065,1.2089,1.2133,1.2171,1.218,1.2189,1.2221,1.2232,1.2096,1.2096,1.2096,0,1.1706,1.1761,1.1757,1.18,1.182,1.1801,1.1849,1.1867,1.1903,1.1917,1.1898,1.1975,1.1992,1.206,1.2081,1.2096,1.2109,1.2086,1.2179,1.2188,1.2196,1.2226,1.2238,1.2099,1.2098,1.2098,1.2098,0,1.1805,1.1844,1.1879,1.1913,1.1937,1.1982,1.1986,1.2011,1.2005,1.2012,1.2068,1.2087,1.2125,1.2141,1.2137,1.2209,1.2198,1.2179,1.2145,1.2211,1.2239,1.225,1.2102,1.2101,1.2101,1.21,0,0,1.1906,1.1938,1.1951,1.1967,1.1994,1.2024,1.2069,1.2105,1.2127,1.2152,1.2191,1.2243,1.2226,1.2247,1.2245,1.2277,1.2345,1.2254,1.2255,1.2271,1.2427,1.2441,1.2454,1.2336,1.2339,1.234,1.2425,0,1.1986,1.2063,1.2061,1.2133,1.2169,1.2153,1.2192,1.2214,1.2221,1.2254,1.2263,1.2301,1.2275,1.2287,1.2319,1.233,1.2376,1.2324,1.2373,1.2375,1.2367,1.2469,1.2484,1.2563,1.2436,1.2437,1.2439,0,1.2089,1.2117,1.2193,1.2215,1.223,1.2265,1.2299,1.233,1.2355,1.2358,1.2381,1.2374,1.2421,1.2385,1.245,1.2415,1.2435,1.2443,1.2446,1.2452,1.2411,1.2477,1.2588,1.26,1.2456,1.2454,1.2453,0,1.2156,1.2213,1.2266,1.228,1.2307,1.2332,1.2345,1.2367,1.239,1.2419,1.2434,1.2469,1.2488,1.2516,1.2519,1.2492,1.2585,1.2549,1.259,1.259,1.261,1.2609,1.2726,1.2623,1.2622,1.2622,1.2622,0,1.2245,1.2292,1.2296,1.2329,1.2382,1.2379,1.2432,1.2443,1.2463,1.2498,1.2486,1.252,1.2521,1.2556,1.2559,1.2613,1.2622,1.2627,1.2627,1.2628,1.2628,1.2642,1.2637,1.2625,1.2625,1.2624,1.2623,0,1.2329,1.2334,1.239,1.2411,1.2418,1.2456,1.2475,1.2507,1.2513,1.2558,1.2568,1.2579,1.262,1.2625,1.2673,1.2675,1.274,1.2734,1.2731,1.2731,1.2772,1.2768,1.2903,1.2921,1.2804,1.2805,1.2806,0,1.2386,1.2422,1.2447,1.2469,1.2483,1.2519,1.2542,1.2541,1.2565,1.2596,1.2625,1.2664,1.2695,1.2761,1.2773,1.281,1.2806,1.285,1.2811,1.2811,1.2807,1.2805,1.2809,1.2858,1.2859,1.286,1.2861,0,1.2487,1.2488,1.252,1.2553,1.258,1.2606,1.2631,1.265,1.2653,1.2681,1.2722,1.2746,1.2794,1.2834,1.287,1.2884,1.2874,1.2873,1.2885,1.2887,1.2884,1.2887,1.2753,1.287,1.2869,1.2869,1.2868,1.2868,1.256,1.2592,1.2614,1.2651,1.2669,1.2693,1.2724,1.2734,1.2767,1.2806,1.2804,1.2849,1.2874,1.2921,1.2938,1.2975,1.296,1.2977,1.2981,1.2985,1.299,1.2878,1.2981,1.2981,1.2981,1.298,1.298,0,1.2661,1.2675,1.2709,1.2743,1.2772,1.2759,1.2786,1.2811,1.2851,1.2874,1.2905,1.2953,1.2991,1.3007,1.3044,1.307,1.3067,1.3081,1.3079,1.3083,1.3,1.2987,1.3083,1.3083,1.3083,1.3083,1.3083,1.3083,1.2718,1.277,1.2773,1.2836,1.2849,1.2893,1.2909,1.2931,1.295,1.3003,1.3035,1.3044,1.3065,1.3104,1.3139,1.3143,1.3158,1.3174,1.3176,1.3099,1.3088,1.3079,1.3066,1.3177,1.3177,1.3256,1.3256,1.3257]},{"header":{"parameterUnit":"m.s-1","parameterCategory":1,"la1":30.2991,"la2":30.254,"lo1":-89.0895,"lo2":-89.0444,"dy":0.0017,"dx":0.0017,"nx":28,"ny":28,"refTime":"2024-10-01T03:00:00:Z","depth":0,"parameterNumber":3,"parameterNumberName":"V-component_of_WINDS"},"data":[0,0,0,0,0,0,0,0,0,0,0,0,0,0,0,0,0,0,0,0,0,0,0,0,0,0,0,0,0,0,0,0,0,0,0,0,0,0,0,0,0,0,0,0,0,0,0,0,0,0,0,0,0,0,0,0,0,0,0.4574,0.4577,0,0.4864,0.4867,0.4871,0.4952,0.495,0.4948,0.4947,0.5252,0.5261,0.5271,0,0,0,0,0,0,0,0,0,0,0,0,0,0.4095,0.4104,0.4573,0.4577,0.4581,0.4864,0.4868,0.4872,0.4952,0.495,0.4948,0.4946,0.5249,0.526,0.5272,0,0,0,0,0,0,0,0,0,0,0,0,0,0.4336,0.4106,0.4573,0.4655,0.4665,0.4863,0.4868,0.4873,0.4952,0.495,0.4947,0.4945,0.5245,0.5259,0.5273,0.5413,0,0,0.5318,0.5324,0,0,0,0,0,0,0,0,0.4322,0.4354,0.4639,0.4649,0.4661,0.4869,0.4811,0.5054,0.4953,0.4843,0.4947,0.4944,0.5127,0.5151,0.5211,0.5427,0.544,0.5319,0.5328,0.5334,0.5338,0,0,0,0,0,0,0,0.4306,0.4342,0.4689,0.4643,0.4657,0.4679,0.4711,0.4857,0.4996,0.4853,0.4859,0.4892,0.5133,0.5197,0.5219,0.5445,0.5318,0.5331,0.534,0.5346,0.579,0.5793,0,0,0,0,0,0,0.4274,0.4327,0.468,0.4697,0.4482,0.469,0.4725,0.4805,0.4994,0.5021,0.4894,0.4895,0.5173,0.5202,0.523,0.5407,0.5334,0.5347,0.5356,0.5787,0.5791,0.5794,0,0,0,0,0,0,0.4263,0.4304,0.4668,0.4514,0.4562,0.4701,0.479,0.4812,0.4877,0.5026,0.5051,0.4934,0.5173,0.521,0.5366,0.5418,0.5354,0.5367,0.5784,0.5788,0.5793,0.576,0,0,0,0,0,0,0.4249,0.43,0.4353,0.4515,0.457,0.4797,0.4793,0.4819,0.49,0.4904,0.507,0.5095,0.5173,0.5344,0.5381,0.5437,0.5378,0.578,0.5786,0.5791,0.5757,0.5763,0.5768,0,0,0,0,0,0.4232,0.4334,0.4355,0.4398,0.4639,0.48,0.4832,0.4918,0.4904,0.496,0.5055,0.509,0.5406,0.536,0.5401,0.5463,0.5777,0.5784,0.5791,0.5755,0.5762,0.5768,0,0,0,0,0,0,0.4179,0.4357,0.4383,0.454,0.4654,0.4813,0.4886,0.4923,0.5045,0.5044,0.5148,0.5185,0.5334,0.5414,0.5359,0.5608,0.5592,0.5608,0.5551,0.5559,0.5564,0.5543,0.5391,0,0,0,0,0,0.4184,0.4298,0.4449,0.4573,0.4629,0.4747,0.4821,0.4877,0.5,0.505,0.5157,0.5277,0.5404,0.5486,0.561,0.5768,0.5806,0.5831,0.5836,0.584,0.5853,0.5944,0.5957,0.5817,0.5817,0.5817,0,0,0.42,0.4311,0.4377,0.4565,0.466,0.4778,0.4788,0.4912,0.5001,0.507,0.5224,0.5306,0.5448,0.5605,0.568,0.5677,0.59,0.5849,0.5851,0.5863,0.5952,0.5965,0.5977,0.5822,0.5821,0.582,0,0,0.4287,0.4381,0.4496,0.459,0.4732,0.481,0.4837,0.4991,0.5047,0.5203,0.5257,0.5365,0.558,0.5679,0.5757,0.5879,0.5916,0.5917,0.5946,0.6033,0.6044,0.6054,0.6099,0.6114,0.5929,0.5929,0.5929,0,0.4288,0.4465,0.455,0.4672,0.4753,0.4817,0.4935,0.5023,0.52,0.5256,0.5248,0.5519,0.5619,0.5801,0.583,0.5891,0.5927,0.59,0.6035,0.6046,0.6057,0.6101,0.6117,0.5928,0.5928,0.5928,0.5928,0,0.446,0.4582,0.4658,0.4823,0.4914,0.5032,0.5137,0.5219,0.5266,0.5345,0.5503,0.5624,0.5774,0.5821,0.587,0.601,0.6004,0.6014,0.6001,0.6068,0.6111,0.6129,0.5927,0.5927,0.5928,0.5928,0,0,0.4526,0.4734,0.4761,0.4837,0.4997,0.5095,0.5216,0.536,0.5429,0.5548,0.5654,0.5834,0.5844,0.5932,0.5993,0.6068,0.6158,0.607,0.6075,0.6083,0.6321,0.6314,0.6332,0.6182,0.6185,0.6188,0.631,0,0.4634,0.4852,0.4931,0.5111,0.5225,0.5286,0.5392,0.5503,0.558,0.569,0.5775,0.5901,0.5904,0.5958,0.6035,0.613,0.6208,0.6122,0.6284,0.6289,0.6249,0.6354,0.6347,0.6457,0.6327,0.633,0.6332,0,0.4791,0.4909,0.5099,0.5244,0.5295,0.5389,0.5527,0.5631,0.5758,0.5809,0.5906,0.596,0.6092,0.6068,0.6251,0.6191,0.6262,0.6318,0.6325,0.6345,0.6316,0.6379,0.6493,0.651,0.6359,0.6357,0.6355,0,0.4821,0.5027,0.5168,0.5231,0.5404,0.5468,0.5544,0.5668,0.5749,0.5871,0.5925,0.606,0.6135,0.624,0.633,0.6304,0.6506,0.6489,0.6553,0.6551,0.6595,0.6592,0.6724,0.6637,0.6636,0.6636,0.6636,0,0.4936,0.505,0.5183,0.527,0.54,0.549,0.5617,0.5697,0.5807,0.5912,0.5973,0.607,0.6182,0.6295,0.6366,0.6508,0.6541,0.6587,0.6605,0.6583,0.6577,0.6632,0.6628,0.6641,0.664,0.6639,0.6638,0,0.4992,0.5086,0.5243,0.5392,0.5433,0.5522,0.5651,0.5739,0.5816,0.5948,0.5984,0.6108,0.6243,0.6342,0.6517,0.6565,0.6717,0.6735,0.6673,0.6683,0.6742,0.6736,0.6917,0.6945,0.6836,0.6837,0.6838,0,0.506,0.5149,0.5307,0.538,0.5454,0.5571,0.5654,0.5746,0.583,0.598,0.605,0.6188,0.6304,0.6517,0.6624,0.6759,0.6781,0.6835,0.6802,0.6777,0.6784,0.6778,0.6788,0.684,0.6841,0.6842,0.6842,0,0.5171,0.5213,0.5327,0.5458,0.5554,0.5663,0.5772,0.5829,0.5941,0.6032,0.6169,0.6259,0.6436,0.6574,0.6718,0.6798,0.684,0.6851,0.6873,0.6853,0.6814,0.6837,0.6688,0.6847,0.6847,0.6846,0.6846,0.6846,0.5238,0.5319,0.5443,0.5569,0.566,0.576,0.5849,0.5937,0.6052,0.6202,0.6249,0.6392,0.6517,0.6715,0.6796,0.691,0.6909,0.6941,0.695,0.6957,0.6956,0.6793,0.6937,0.6937,0.6937,0.6937,0.6937,0,0.5354,0.5435,0.5549,0.5699,0.5798,0.5824,0.5947,0.6029,0.6152,0.6264,0.6376,0.6534,0.6667,0.6782,0.6921,0.699,0.7012,0.7023,0.702,0.7038,0.6948,0.6916,0.7003,0.7003,0.7003,0.7003,0.7002,0.7002,0.5426,0.5565,0.5621,0.5807,0.5888,0.6026,0.6094,0.6187,0.6277,0.6449,0.6559,0.6632,0.6746,0.6893,0.7016,0.7047,0.7096,0.7103,0.7138,0.7053,0.7045,0.7037,0.7007,0.7112,0.7112,0.722,0.7221,0.7221]}]]